TimeMDT,TemperatureF,Dew PointF,Humidity,Sea Level PressureIn,VisibilityMPH,Wind Direction,Wind SpeedMPH,Gust SpeedMPH,PrecipitationIn,Events,Conditions,WindDirDegrees,DateUTC
12:53 AM,48.0,37.0,66,29.97,10.0,West,9.2,-,N/A,,Clear,260,2013-03-30 06:53:00
1:53 AM,46.9,36.0,66,29.96,10.0,West,12.7,-,N/A,,Clear,260,2013-03-30 07:53:00
2:53 AM,45.0,35.1,68,29.96,10.0,WNW,13.8,-,N/A,,Clear,290,2013-03-30 08:53:00
3:53 AM,44.1,35.1,71,29.96,10.0,West,13.8,-,N/A,,Clear,280,2013-03-30 09:53:00
4:53 AM,41.0,34.0,76,29.98,10.0,WNW,12.7,-,N/A,,Clear,290,2013-03-30 10:53:00
5:53 AM,41.0,34.0,76,29.99,10.0,NW,17.3,-,N/A,,Clear,310,2013-03-30 11:53:00
6:53 AM,39.9,34.0,79,30.03,10.0,NW,13.8,-,N/A,,Clear,310,2013-03-30 12:53:00
7:53 AM,45.0,35.1,68,30.04,10.0,NW,12.7,-,N/A,,Clear,320,2013-03-30 13:53:00
8:53 AM,51.1,36.0,56,30.04,10.0,NNW,13.8,20.7,N/A,,Clear,340,2013-03-30 14:53:00
9:53 AM,55.9,34.0,44,30.04,10.0,North,15.0,-,N/A,,Clear,10,2013-03-30 15:53:00
10:53 AM,59.0,33.1,38,30.03,10.0,NNE,12.7,-,N/A,,Clear,30,2013-03-30 16:53:00
11:53 AM,62.1,32.0,32,30.01,10.0,ENE,8.1,-,N/A,,Clear,70,2013-03-30 17:53:00
12:53 PM,62.1,32.0,32,30.00,10.0,Variable,5.8,-,N/A,,Clear,0,2013-03-30 18:53:00
1:53 PM,64.0,30.9,29,29.98,10.0,North,8.1,-,N/A,,Clear,10,2013-03-30 19:53:00
2:53 PM,66.0,30.9,27,29.95,10.0,North,9.2,-,N/A,,Clear,360,2013-03-30 20:53:00
3:53 PM,66.0,30.0,26,29.93,10.0,NNW,3.5,-,N/A,,Clear,340,2013-03-30 21:53:00
4:53 PM,66.9,30.0,25,29.93,10.0,Variable,4.6,-,N/A,,Clear,0,2013-03-30 22:53:00
5:53 PM,54.0,43.0,66,29.99,10.0,North,18.4,31.1,0.00,,Scattered Clouds,10,2013-03-30 23:53:00
6:53 PM,52.0,43.0,71,30.06,10.0,NNW,12.7,-,0.00,Rain,Light Rain,340,2013-03-31 00:53:00
7:53 PM,50.0,45.0,83,30.09,10.0,NNW,12.7,-,0.06,Rain,Light Rain,340,2013-03-31 01:53:00
8:53 PM,48.9,45.0,86,30.09,10.0,NNW,3.5,-,0.04,,Overcast,340,2013-03-31 02:53:00
9:53 PM,46.9,44.1,90,30.10,10.0,NNW,8.1,-,N/A,,Partly Cloudy,330,2013-03-31 03:53:00
10:53 PM,46.0,42.1,86,30.12,10.0,North,15.0,-,N/A,,Scattered Clouds,360,2013-03-31 04:53:00
11:53 PM,42.1,39.0,89,30.12,10.0,NW,6.9,-,N/A,,Clear,320,2013-03-31 05:53:00